User: anonymous   Login
Location: Squamish
(49.7000°N, 123.1500°W)
Time: 03:19:12
(UTC-07:00)
Language:

NOAA 19 - Orbit

View from above orbital plane
View from above orbital plane
View from above satellite
View from above satellite

Ground track
Ground track

The orbit data is extracted from the following two-line orbital elements,

1 33591U 09005A   15142.44272313  .00000191  00000-0  12901-3 0  9991
2 33591 098.9880 092.2621 0012973 241.0383 118.9488 14.11934844323859
Epoch (UTC): 22 May 2015 10:37:31
Eccentricity: 0.0012973
inclination: 98.9880°
perigee height: 843 km
apogee height: 862 km
right ascension of ascending node: 92.2621°
argument of perigee: 241.0383°
revolutions per day: 14.11934844
mean anomaly at epoch: 118.9488°
orbit number at epoch: 32385

The dashed part of the orbit path shows where the satellite is in the earth's shadow,  

DLR